Theta_e
301 301 301 301 301 302 302 302 302 302 302 302 303 303 303 303 303 301 300 299 303 305 311 314 308 309 307 303 300 299 302 304 305 306 307 306 305 305 304 306 306 306 308 309 320
302 301 301 300 301 302 302 302 302 302 302 302 302 302 303 303 301 299 301 311 308 310 313 314 313 306 305 305 301 301 302 303 304 305 305 307 306 308 305 304 305 308 310 317 323
300 300 300 300 300 301 301 301 301 301 301 301 302 302 302 302 299 298 314 313 311 312 313 313 315 311 306 303 302 301 305 304 303 304 304 305 307 306 305 304 304 305 308 317 321
300 300 299 300 300 300 300 300 301 300 300 300 301 301 301 301 295 305 312 303 303 306 302 315 316 314 307 307 302 303 303 304 304 304 307 305 306 305 304 307 305 302 308 317 322
300 299 299 299 300 300 300 300 300 299 299 300 300 300 300 299 300 297 297 298 302 300 306 312 313 311 312 305 305 304 303 303 303 304 302 303 304 304 302 303 303 305 310 316 320
299 299 298 299 299 299 299 299 299 299 299 299 299 300 299 299 298 298 299 299 299 299 301 303 310 309 309 308 308 306 306 307 305 303 302 303 303 304 302 303 302 304 309 312 319
299 298 299 299 298 299 299 298 299 299 299 298 299 299 298 298 298 298 297 299 300 300 299 300 302 308 307 309 307 307 309 309 308 305 305 304 306 305 303 304 303 301 302 310 316
298 299 297 298 299 298 298 299 299 299 297 297 297 297 296 296 299 300 300 298 295 295 294 298 301 305 309 308 308 306 306 310 309 308 306 306 310 309 305 305 305 303 302 303 311
299 297 297 299 298 299 298 298 298 296 295 295 294 297 297 298 301 296 294 293 294 294 294 295 295 305 308 310 311 309 308 307 308 307 307 307 309 307 306 306 307 308 307 303 304
297 297 298 298 299 298 298 298 295 294 293 292 293 295 294 296 294 293 293 294 294 295 295 296 303 305 307 310 309 309 309 307 307 306 307 308 309 308 307 306 307 308 308 304 303
297 297 297 298 298 298 297 294 293 292 293 293 293 293 293 293 294 294 294 294 295 295 294 293 293 294 303 307 308 306 305 307 306 305 308 308 309 308 306 306 308 308 304 301 301
296 297 297 298 298 297 296 294 293 294 294 293 293 293 294 294 294 294 294 295 295 295 295 295 295 292 294 300 307 309 309 306 305 305 306 307 307 306 306 306 306 306 305 301 300
297 296 297 297 297 296 295 294 294 294 294 293 292 293 293 293 294 293 294 296 295 295 296 295 293 295 295 295 298 307 310 307 309 305 306 306 307 306 304 304 304 305 305 305 302
297 296 297 297 296 295 294 294 293 294 288 290 292 293 294 294 293 294 295 295 296 294 295 295 295 296 295 296 299 304 307 307 308 308 309 306 308 306 306 306 305 306 306 305 302
297 297 297 297 295 294 294 293 294 292 288 288 291 294 292 291 292 293 294 293 294 294 296 294 296 297 297 296 295 298 298 304 308 309 309 309 309 306 304 305 305 306 306 306 304
297 297 297 295 294 293 293 293 291 282 282 289 290 291 291 292 292 293 293 294 294 295 296 297 296 297 297 296 295 296 299 303 305 307 308 305 306 304 304 305 305 305 305 306 306
296 296 295 294 292 293 293 288 283 283 286 287 290 291 291 292 293 293 292 291 296 295 290 296 297 298 298 300 298 303 303 306 308 308 307 304 306 305 303 304 304 305 304 304 303
296 294 293 292 292 294 291 284 283 279 282 289 291 291 292 293 293 288 290 289 296 295 297 296 293 299 299 300 299 296 302 308 309 310 309 303 309 306 304 303 298 301 301 301 301
294 293 293 292 294 294 288 279 281 284 290 290 290 289 291 292 294 293 291 292 295 299 299 292 295 298 299 298 299 297 301 299 305 291 304 298 302 302 302 301 303 303 301 302 301
294 292 291 292 294 292 287 287 282 289 290 289 290 290 293 292 293 295 293 294 297 299 299 294 298 299 302 301 299 300 299 302 304 302 307 297 298 302 297 301 302 298 300 297 296
293 288 290 292 292 286 284 282 286 289 290 287 287 291 292 294 296 296 295 295 297 297 295 294 296 296 300 303 300 301 305 303 305 306 305 306 303 291 293 291 293 292 294 292 292
293 292 290 291 285 279 287 286 290 290 290 289 291 293 294 294 294 296 297 297 296 295 293 293 299 297 299 297 300 302 302 304 303 302 298 298 300 285 283 282 285 291 292 291 290
294 289 290 292 286 278 284 286 289 289 289 283 290 292 293 292 293 295 296 296 295 294 291 297 297 297 296 301 302 304 299 299 301 299 301 304 297 285 292 291 289 288 289 289 289
292 289 283 284 289 287 290 286 283 287 287 290 291 291 291 290 290 292 294 294 294 293 296 294 294 295 297 299 299 301 298 302 304 301 292 297 290 292 290 290 292 295 288 286 285
291 286 282 287 289 289 287 284 289 283 286 289 287 287 289 291 290 285 290 293 293 293 292 290 295 292 296 297 296 294 292 294 295 295 300 295 298 290 290 288 292 291 293 289 284
288 289 286 289 288 289 287 285 289 289 287 290 287 289 289 291 291 291 292 293 294 291 291 289 292 293 296 296 296 295 294 293 292 292 294 290 294 291 287 285 285 284 287 289 290
291 291 291 287 287 287 289 289 289 290 290 290 290 290 290 289 290 291 291 291 293 294 294 294 291 293 295 292 296 294 292 292 292 291 292 292 292 289 288 287 285 284 284 284 285
Wind_Speed
23 23 25 26 25 26 27 27 27 28 28 29 29 30 30 31 34 35 12 22 13 12 16 10 8 5 8 3 4 4 3 7 10 10 18 2 6 3 1 5 3 6 3 5 17
24 26 27 27 27 28 28 30 31 31 30 30 29 29 28 29 33 22 20 18 13 14 14 9 4 4 3 5 4 5 7 12 7 14 7 4 7 6 4 4 4 3 2 4 19
26 28 28 28 28 28 30 31 32 32 33 32 32 29 27 25 10 6 10 19 5 8 14 18 13 2 5 4 5 6 21 7 6 14 6 5 4 3 6 4 9 10 5 9 14
27 29 30 29 30 30 31 33 33 34 34 33 33 29 26 17 8 2 1 18 18 14 17 4 8 6 5 10 6 9 6 16 5 7 6 7 3 6 9 10 3 6 5 10 16
27 30 30 30 31 32 34 34 35 36 35 34 33 29 28 6 12 28 30 21 17 20 6 6 11 8 15 6 6 13 6 6 11 17 11 6 9 10 8 11 3 3 7 12 15
27 29 29 29 31 33 34 34 36 37 36 37 33 27 16 24 12 17 11 21 23 16 11 9 6 7 10 7 13 3 6 21 17 11 5 13 15 5 9 10 7 6 9 10 14
26 28 28 29 32 33 34 36 38 39 39 35 30 28 15 28 16 18 29 31 17 8 5 16 17 10 1 6 10 11 17 15 20 4 9 3 20 21 8 8 11 9 10 9 13
28 27 29 29 31 33 35 37 40 40 37 33 27 19 10 18 18 21 18 7 16 25 14 18 17 17 20 12 13 4 4 12 12 17 7 11 31 19 15 12 15 11 12 9 13
26 29 27 29 32 33 36 39 39 36 29 20 20 3 10 10 5 5 12 18 21 15 22 18 12 13 11 20 17 17 19 19 13 6 8 16 25 7 10 17 21 21 18 15 13
27 27 28 30 33 34 38 37 33 21 9 19 11 4 6 5 20 40 42 16 4 11 10 5 3 10 15 17 21 24 23 22 21 7 12 17 30 16 6 10 17 17 16 15 17
28 27 29 31 32 35 38 28 8 4 13 7 24 21 27 25 21 15 12 10 4 3 3 4 7 18 28 27 26 20 21 19 13 9 14 20 28 17 12 10 17 15 10 11 13
28 29 31 31 33 35 18 8 9 14 18 18 24 21 33 17 10 18 6 7 5 9 4 3 15 24 19 21 23 26 26 24 18 9 11 12 20 8 9 10 13 14 13 10 7
29 29 30 32 34 14 24 16 18 22 7 15 7 6 5 6 7 15 8 6 6 9 16 14 13 11 20 23 25 22 25 27 16 6 17 8 23 15 7 6 8 9 10 10 12
29 28 30 34 16 22 16 17 22 11 4 7 4 5 2 3 9 4 13 8 6 12 18 9 22 19 19 21 17 25 20 24 23 15 18 10 17 12 18 21 13 19 17 16 10
29 29 30 29 27 8 14 20 16 1 5 5 5 3 15 9 12 20 11 6 19 19 6 11 9 11 13 26 25 16 9 16 16 13 12 10 8 12 14 14 16 19 19 16 12
30 30 32 26 20 14 13 18 3 6 6 8 6 17 17 30 12 10 5 5 7 9 10 21 19 13 23 23 18 20 12 20 19 14 19 20 16 21 8 17 14 14 18 19 17
30 32 33 21 7 14 14 5 4 4 8 8 19 17 27 24 13 3 5 5 7 4 4 7 15 10 14 8 5 7 15 10 15 15 19 20 16 21 7 18 21 21 18 16 10
30 33 31 17 7 6 5 5 3 5 8 9 17 32 9 16 5 5 8 8 3 8 10 4 8 3 6 14 4 7 5 3 7 5 12 5 10 10 25 20 8 13 14 13 11
31 29 23 4 3 2 4 3 6 6 6 17 19 6 15 6 6 7 4 3 4 4 4 3 5 5 7 8 19 6 7 3 6 3 2 3 4 7 6 14 22 21 16 13 5
24 15 13 3 3 2 3 6 5 5 9 6 7 4 12 24 14 2 4 3 4 4 6 4 12 5 5 6 12 10 7 2 4 2 4 3 2 5 3 10 13 10 4 6 3
11 3 3 3 4 3 2 6 7 8 10 3 8 12 16 14 7 3 5 8 4 11 4 7 5 8 4 2 3 6 6 6 5 4 3 2 4 3 5 4 6 7 7 7 8
3 3 3 6 3 2 3 4 7 14 9 7 6 13 11 11 7 4 5 3 12 8 13 4 4 5 18 4 5 3 4 4 4 3 2 3 5 4 5 6 4 6 7 7 5
4 3 2 0 1 3 5 6 5 5 5 4 5 5 8 7 8 6 4 6 9 15 6 5 4 9 10 2 4 3 3 3 4 3 5 5 4 6 10 9 7 7 9 9 5
3 3 4 3 0 3 6 5 5 4 7 5 10 12 9 13 5 11 16 7 11 16 18 5 3 5 6 13 11 7 8 3 4 3 3 5 1 14 16 13 13 13 7 7 6
1 4 4 4 4 6 2 3 10 5 4 3 5 4 11 9 17 5 7 19 8 9 3 3 5 2 10 12 2 5 5 8 6 3 2 2 5 6 10 11 12 11 11 8 7
1 2 1 3 2 4 4 4 13 8 2 13 6 14 15 13 17 26 20 17 10 3 3 2 4 4 6 3 11 12 15 12 8 8 4 4 4 9 8 6 8 11 12 11 9
4 4 2 5 3 2 4 6 13 17 10 7 14 18 17 16 13 21 22 24 19 18 13 3 2 5 5 1 3 5 7 8 6 9 2 9 5 9 8 7 7 11 11 11 11
Wind_Direction
6 4 0 357 357 355 352 349 346 344 342 340 338 336 332 328 321 320 273 272 264 287 260 283 284 213 212 243 192 136 215 216 206 211 229 153 191 206 175 173 203 201 205 311 161
5 2 357 354 353 350 347 345 342 340 338 336 335 333 331 329 323 293 316 311 273 257 271 277 265 242 221 210 202 189 217 222 211 223 231 188 186 189 154 205 222 234 201 90 156
359 356 354 352 350 346 344 342 337 336 334 332 332 333 334 334 322 250 30 40 34 299 274 264 248 278 234 200 209 212 239 216 231 236 254 232 236 237 173 198 220 207 168 153 174
355 352 351 348 345 343 341 338 334 332 331 327 326 328 330 330 286 154 10 328 321 314 313 291 214 215 219 219 200 252 237 244 249 248 242 231 190 231 205 232 187 207 166 162 185
350 347 345 344 342 339 338 335 330 328 326 322 320 321 325 265 249 271 298 299 327 342 293 256 249 225 238 219 219 243 233 245 241 248 249 261 230 223 223 235 238 102 163 186 191
344 345 344 341 338 336 333 330 327 325 323 317 314 314 304 267 271 286 276 306 326 327 307 309 275 242 259 235 228 253 251 248 244 250 240 239 253 196 220 244 255 196 211 210 202
341 339 338 337 336 333 329 327 325 321 318 315 312 305 269 258 260 277 285 295 307 332 302 284 254 251 266 254 250 263 269 264 258 227 249 170 266 236 230 207 237 222 232 217 219
336 337 337 332 331 330 326 324 320 316 314 314 312 298 260 273 284 279 301 341 317 310 301 303 270 243 246 254 278 271 228 248 246 228 220 164 259 250 210 205 237 226 235 217 226
339 335 331 332 328 328 324 321 317 314 314 321 307 263 272 295 280 95 338 328 321 313 314 298 275 258 237 235 243 236 248 237 259 216 202 195 256 220 191 212 230 233 231 221 228
337 333 333 331 329 328 325 322 319 313 338 326 287 290 275 282 314 307 299 318 295 329 320 185 261 254 240 222 227 229 229 239 242 201 198 222 248 238 220 203 226 230 231 222 218
335 334 332 330 329 327 327 340 357 342 349 269 267 271 277 290 300 283 283 302 272 185 245 270 226 233 236 226 238 249 240 248 236 215 210 226 248 235 227 229 233 236 227 224 220
333 330 329 330 328 326 330 346 303 301 304 270 266 265 258 269 297 282 280 182 197 264 244 257 238 244 260 276 254 236 244 242 252 210 229 245 259 223 224 239 228 232 239 227 227
330 330 328 330 328 324 329 317 332 329 295 300 259 254 272 147 234 276 180 222 214 257 249 232 251 262 242 255 261 258 228 234 237 209 234 243 261 252 248 254 264 253 252 238 219
330 330 328 331 330 323 308 331 328 329 305 276 309 295 195 273 277 270 211 217 231 239 262 234 248 244 239 235 235 257 242 236 238 237 239 174 260 236 235 240 236 248 248 248 233
329 327 326 330 309 313 309 323 331 5 333 288 304 295 316 301 297 293 239 262 254 259 249 239 234 223 229 234 229 246 267 276 235 233 246 215 257 254 235 237 234 239 245 243 230
332 326 325 325 312 295 316 323 347 43 261 303 315 321 321 316 308 284 257 211 252 264 235 248 254 251 240 252 239 227 239 261 250 243 247 235 226 258 211 225 236 233 237 235 235
333 326 322 315 283 307 325 12 23 130 326 297 321 315 316 298 298 275 271 271 277 284 261 256 253 253 217 227 162 190 208 230 216 217 237 223 216 231 213 215 225 232 233 237 218
332 329 323 320 306 331 16 46 106 241 257 305 314 310 282 303 301 303 291 291 216 233 264 293 323 153 189 226 161 181 201 209 232 213 219 163 212 226 224 236 240 232 239 258 233
334 334 315 304 314 354 59 43 217 226 297 324 319 309 311 288 313 305 246 276 313 327 307 299 267 272 251 204 199 197 229 140 346 339 99 192 278 304 191 223 233 239 245 251 325
335 322 299 286 325 49 80 245 233 228 320 330 291 247 296 309 317 278 315 272 283 300 317 284 295 244 301 176 191 185 152 160 185 273 221 242 267 225 251 217 232 243 267 316 351
323 348 283 318 320 52 212 235 280 272 329 203 249 283 288 313 282 284 273 292 329 319 358 279 227 289 330 301 192 166 178 182 187 202 98 348 275 269 241 259 279 338 341 336 323
294 292 313 331 25 319 263 207 269 299 313 264 265 269 286 329 304 292 296 291 329 338 320 264 289 288 289 266 201 250 155 143 152 175 121 133 273 331 328 326 305 338 326 318 340
304 252 3 67 275 283 269 272 262 293 271 304 276 276 315 310 313 281 285 300 325 342 311 310 320 319 332 4 106 322 199 165 110 87 192 143 259 359 6 15 356 328 344 338 345
303 313 315 40 291 249 296 268 289 275 270 247 271 290 311 306 246 285 287 297 317 302 306 336 287 211 279 291 305 303 7 7 152 147 181 232 347 352 355 351 345 348 340 335 338
274 257 197 299 305 273 257 248 299 301 239 286 302 229 323 307 309 242 256 301 305 298 339 70 279 260 288 298 294 24 19 30 67 18 168 291 91 358 345 325 346 337 344 353 341
213 321 265 266 273 268 278 270 290 294 258 303 234 283 304 285 276 292 300 297 298 332 4 354 291 315 294 49 72 54 31 46 48 19 38 29 75 9 324 308 352 352 354 354 343
233 258 250 277 287 291 274 277 293 304 295 247 284 301 296 276 261 279 276 275 262 273 280 265 286 345 274 63 253 32 13 20 80 39 343 36 322 321 331 353 358 354 351 341 332